This is the latest recevied weather packets stored in our database for station/object W5DRO-13. If no packets are shown the sender has not sent any weather packets the latest 10 day(s).
| Time | Temp. | Humidity | Pressure | Rain* | Wind** | Luminosity | Snow |
|---|---|---|---|---|---|---|---|
| 1777767262 | 22.22° C | 41% | 1019.5 hPa | 0 mm | - | - | - |
| 1777765445 | 23.33° C | 35% | 1019.5 hPa | 0 mm | - | - | - |
| 1777764535 | 23.89° C | 37% | 1019.3 hPa | 0 mm | - | - | - |
| 1777763324 | 24.44° C | 34% | 1019.7 hPa | 0 mm | - | - | - |
| 1777763022 | 24.44° C | 34% | 1019.6 hPa | 0 mm | - | - | - |
| 1777761808 | 25° C | 37% | 1019.6 hPa | 0 mm | - | - | - |
| 1777760598 | 22.78° C | 39% | 1019.9 hPa | 0 mm | - | - | - |
| 1777760294 | 22.78° C | 38% | 1020 hPa | 0 mm | - | - | - |
| 1777759383 | 22.78° C | 40% | 1019.8 hPa | 0 mm | - | - | - |
| 1777759080 | 22.78° C | 38% | 1019.9 hPa | 0 mm | - | - | - |
| 1777758171 | 23.89° C | 35% | 1020.1 hPa | 0 mm | - | - | - |
| 1777757868 | 25° C | 36% | 1020.1 hPa | 0 mm | - | - | - |
| 1777757264 | 26.67° C | 32% | 1020.3 hPa | 0 mm | - | - | - |
| 1777756962 | 26.11° C | 32% | 1020.1 hPa | 0 mm | - | - | - |
| 1777753022 | 24.44° C | 34% | 1020.9 hPa | 0 mm | - | - | - |
| 1777752718 | 24.44° C | 38% | 1021.3 hPa | 0 mm | - | - | - |
| 1777752414 | 23.33° C | 37% | 1021.1 hPa | 0 mm | - | - | - |
| 1777751809 | 23.33° C | 40% | 1021.1 hPa | 0 mm | - | - | - |
| 1777751202 | 23.33° C | 38% | 1021.4 hPa | 0 mm | - | - | - |
| 1777750596 | 22.78° C | 43% | 1021.4 hPa | 0 mm | - | - | - |
| 1777749987 | 24.44° C | 40% | 1021.8 hPa | 0 mm | - | - | - |
| 1777749382 | 23.89° C | 40% | 1021.7 hPa | 0 mm | - | - | - |
| 1777749079 | 23.33° C | 39% | 1021.9 hPa | 0 mm | - | - | - |
| 1777748777 | 22.78° C | 41% | 1021.9 hPa | 0 mm | - | - | - |
| 1777748475 | 23.33° C | 40% | 1021.8 hPa | 0 mm | - | - | - |
* Rain latest hour (hover to see other rain measurements)
** Current wind speed in m/s (hover to see current wind gust speed)